Time,TemperatureF,DewpointF,PressureIn,WindDirection,WindDirectionDegrees,WindSpeedMPH,WindSpeedGustMPH,Humidity,HourlyPrecipIn,Conditions,Clouds,dailyrainin,SoftwareType,DateUTC
2013-07-27 00:10:00,66.9,66.6,29.96,NE,45,0.0,-999.0,99,-99.99,,,0.00,Acu-Link.com,2013-07-27 04:10:00,
2013-07-27 00:26:00,66.6,66.3,29.96,WNW,292,0.0,-999.0,99,-99.99,,,0.00,Acu-Link.com,2013-07-27 04:26:00,
2013-07-27 01:11:00,66.0,65.7,29.96,ENE,67,0.0,-999.0,99,-99.99,,,0.00,Acu-Link.com,2013-07-27 05:11:00,
2013-07-27 01:27:00,66.0,65.7,29.96,NNE,22,0.0,-999.0,99,-99.99,,,0.00,Acu-Link.com,2013-07-27 05:27:00,
2013-07-27 01:42:00,66.2,65.9,29.95,ESE,112,0.0,-999.0,99,-99.99,,,0.00,Acu-Link.com,2013-07-27 05:42:00,
2013-07-27 01:57:00,66.2,65.9,29.94,East,90,0.0,-999.0,99,-99.99,,,0.00,Acu-Link.com,2013-07-27 05:57:00,
2013-07-27 02:13:00,66.0,65.7,29.93,WNW,292,0.0,-999.0,99,-99.99,,,0.00,Acu-Link.com,2013-07-27 06:13:00,
2013-07-27 02:28:00,66.0,65.7,29.93,SSE,157,0.0,-999.0,99,-99.99,,,0.00,Acu-Link.com,2013-07-27 06:28:00,
2013-07-27 02:43:00,65.8,65.5,29.92,East,90,0.0,-999.0,99,-99.99,,,0.00,Acu-Link.com,2013-07-27 06:43:00,
2013-07-27 02:59:00,65.7,65.4,29.92,ENE,67,0.0,-999.0,99,-99.99,,,0.00,Acu-Link.com,2013-07-27 06:59:00,
2013-07-27 03:14:00,65.7,65.4,29.92,NE,45,0.0,-999.0,99,-99.99,,,0.00,Acu-Link.com,2013-07-27 07:14:00,
2013-07-27 03:29:00,65.8,65.5,29.92,NE,45,0.0,-999.0,99,-99.99,,,0.00,Acu-Link.com,2013-07-27 07:29:00,
2013-07-27 03:44:00,66.0,65.7,29.92,West,270,0.0,-999.0,99,-99.99,,,0.00,Acu-Link.com,2013-07-27 07:44:00,
2013-07-27 04:00:00,65.8,65.5,29.91,East,90,0.0,-999.0,99,-99.99,,,0.00,Acu-Link.com,2013-07-27 08:00:00,
2013-07-27 04:15:00,65.8,65.5,29.91,East,90,0.0,-999.0,99,-99.99,,,0.00,Acu-Link.com,2013-07-27 08:15:00,
2013-07-27 04:30:00,66.0,65.7,29.91,WSW,247,0.0,-999.0,99,-99.99,,,0.00,Acu-Link.com,2013-07-27 08:30:00,
2013-07-27 04:45:00,66.4,66.1,29.92,East,90,0.0,-999.0,99,-99.99,,,0.01,Acu-Link.com,2013-07-27 08:45:00,
2013-07-27 05:16:00,66.4,66.1,29.90,NE,45,0.0,-999.0,99,-99.99,,,0.01,Acu-Link.com,2013-07-27 09:16:00,
2013-07-27 05:32:00,66.4,66.1,29.91,East,90,0.0,-999.0,99,-99.99,,,0.01,Acu-Link.com,2013-07-27 09:32:00,
2013-07-27 05:47:00,66.6,66.3,29.91,ENE,67,0.0,-999.0,99,-99.99,,,0.01,Acu-Link.com,2013-07-27 09:47:00,
2013-07-27 06:02:00,66.6,66.3,29.90,NNE,22,0.0,-999.0,99,-99.99,,,0.01,Acu-Link.com,2013-07-27 10:02:00,
2013-07-27 06:17:00,66.6,66.3,29.91,NW,315,0.0,-999.0,99,-99.99,,,0.01,Acu-Link.com,2013-07-27 10:17:00,
2013-07-27 06:33:00,66.6,66.3,29.91,NE,45,1.1,-999.0,99,-99.99,,,0.01,Acu-Link.com,2013-07-27 10:33:00,
2013-07-27 06:48:00,66.4,66.1,29.91,West,270,0.0,-999.0,99,-99.99,,,0.01,Acu-Link.com,2013-07-27 10:48:00,
2013-07-27 07:03:00,66.6,66.3,29.92,South,180,0.0,-999.0,99,-99.99,,,0.01,Acu-Link.com,2013-07-27 11:03:00,
2013-07-27 07:19:00,66.6,66.3,29.91,SSE,157,0.0,-999.0,99,-99.99,,,0.01,Acu-Link.com,2013-07-27 11:19:00,
2013-07-27 07:34:00,66.7,66.4,29.92,NNE,22,0.0,-999.0,99,-99.99,,,0.01,Acu-Link.com,2013-07-27 11:34:00,
2013-07-27 07:49:00,66.9,66.6,29.93,NE,45,0.0,-999.0,99,-99.99,,,0.01,Acu-Link.com,2013-07-27 11:49:00,
2013-07-27 08:04:00,67.3,67.0,29.91,ESE,112,0.0,-999.0,99,-99.99,,,0.01,Acu-Link.com,2013-07-27 12:04:00,
2013-07-27 08:20:00,67.8,67.5,29.91,SSW,202,0.0,-999.0,99,-99.99,,,0.01,Acu-Link.com,2013-07-27 12:20:00,
2013-07-27 08:35:00,68.7,68.4,29.91,SW,225,0.0,-999.0,99,-99.99,,,0.01,Acu-Link.com,2013-07-27 12:35:00,
2013-07-27 08:50:00,69.4,69.1,29.91,East,90,0.0,-999.0,99,-99.99,,,0.01,Acu-Link.com,2013-07-27 12:50:00,
2013-07-27 09:06:00,70.3,70.0,29.91,ENE,67,0.0,-999.0,99,-99.99,,,0.01,Acu-Link.com,2013-07-27 13:06:00,
2013-07-27 09:36:00,72.1,70.6,29.92,ENE,67,0.0,-999.0,95,-99.99,,,0.01,Acu-Link.com,2013-07-27 13:36:00,
2013-07-27 09:52:00,72.7,70.9,29.92,ESE,112,0.0,-999.0,94,-99.99,,,0.01,Acu-Link.com,2013-07-27 13:52:00,
2013-07-27 10:07:00,74.1,70.6,29.92,West,270,0.0,-999.0,89,-99.99,,,0.01,Acu-Link.com,2013-07-27 14:07:00,
2013-07-27 10:23:00,74.3,70.8,29.93,SSE,157,0.0,-999.0,89,-99.99,,,0.01,Acu-Link.com,2013-07-27 14:23:00,
2013-07-27 10:38:00,74.1,69.6,29.92,SE,135,0.0,-999.0,86,-99.99,,,0.01,Acu-Link.com,2013-07-27 14:38:00,
2013-07-27 10:53:00,74.1,70.6,29.91,SE,135,0.0,-999.0,89,-99.99,,,0.01,Acu-Link.com,2013-07-27 14:53:00,
2013-07-27 11:09:00,73.8,70.3,29.92,NE,45,0.0,-999.0,89,-99.99,,,0.01,Acu-Link.com,2013-07-27 15:09:00,
2013-07-27 11:24:00,75.9,71.4,29.92,ENE,67,0.0,-999.0,86,-99.99,,,0.01,Acu-Link.com,2013-07-27 15:24:00,
2013-07-27 11:39:00,77.2,70.5,29.92,South,180,0.0,-999.0,80,-99.99,,,0.01,Acu-Link.com,2013-07-27 15:39:00,
2013-07-27 11:55:00,77.2,69.8,29.91,South,180,0.0,-999.0,78,-99.99,,,0.01,Acu-Link.com,2013-07-27 15:55:00,
2013-07-27 12:10:00,77.0,70.7,29.92,South,180,0.0,-999.0,81,-99.99,,,0.01,Acu-Link.com,2013-07-27 16:10:00,
2013-07-27 12:25:00,77.2,71.3,29.92,West,270,0.0,-999.0,82,-99.99,,,0.01,Acu-Link.com,2013-07-27 16:25:00,
2013-07-27 12:41:00,77.2,69.4,29.91,NE,45,0.0,-999.0,77,-99.99,,,0.01,Acu-Link.com,2013-07-27 16:41:00,
2013-07-27 12:56:00,74.7,70.6,29.91,East,90,0.0,-999.0,87,-99.99,,,0.01,Acu-Link.com,2013-07-27 16:56:00,
2013-07-27 13:11:00,77.9,70.1,29.91,South,180,0.0,-999.0,77,-99.99,,,0.01,Acu-Link.com,2013-07-27 17:11:00,
2013-07-27 13:41:00,77.4,67.6,29.89,WNW,292,1.1,-999.0,72,-99.99,,,0.01,Acu-Link.com,2013-07-27 17:41:00,
2013-07-27 13:57:00,77.5,68.5,29.89,NW,315,1.1,-999.0,74,-99.99,,,0.01,Acu-Link.com,2013-07-27 17:57:00,
2013-07-27 14:12:00,80.1,70.2,29.89,NNE,22,0.0,-999.0,72,-99.99,,,0.01,Acu-Link.com,2013-07-27 18:12:00,
2013-07-27 14:27:00,80.4,69.7,29.88,East,90,0.0,-999.0,70,-99.99,,,0.01,Acu-Link.com,2013-07-27 18:27:00,
2013-07-27 14:43:00,79.0,70.0,29.88,South,180,0.0,-999.0,74,-99.99,,,0.01,Acu-Link.com,2013-07-27 18:43:00,
2013-07-27 14:58:00,79.2,68.6,29.88,South,180,0.0,-999.0,70,-99.99,,,0.01,Acu-Link.com,2013-07-27 18:58:00,
2013-07-27 15:14:00,78.3,68.9,29.88,South,180,0.0,-999.0,73,-99.99,,,0.01,Acu-Link.com,2013-07-27 19:14:00,
2013-07-27 15:29:00,80.8,67.9,29.87,SSE,157,0.0,-999.0,65,-99.99,,,0.01,Acu-Link.com,2013-07-27 19:29:00,
2013-07-27 15:44:00,80.1,69.0,29.87,SSE,157,0.0,-999.0,69,-99.99,,,0.01,Acu-Link.com,2013-07-27 19:44:00,
2013-07-27 15:59:00,78.6,69.2,29.87,ESE,112,0.0,-999.0,73,-99.99,,,0.01,Acu-Link.com,2013-07-27 19:59:00,
2013-07-27 16:15:00,78.6,69.6,29.86,South,180,1.1,-999.0,74,-99.99,,,0.01,Acu-Link.com,2013-07-27 20:15:00,
2013-07-27 16:30:00,79.2,68.1,29.85,South,180,0.0,-999.0,69,-99.99,,,0.01,Acu-Link.com,2013-07-27 20:30:00,
2013-07-27 16:45:00,79.2,69.0,29.85,South,180,0.0,-999.0,71,-99.99,,,0.01,Acu-Link.com,2013-07-27 20:45:00,
2013-07-27 17:00:00,78.3,70.5,29.85,South,180,0.0,-999.0,77,-99.99,,,0.01,Acu-Link.com,2013-07-27 21:00:00,
2013-07-27 17:16:00,78.3,70.1,29.85,South,180,0.0,-999.0,76,-99.99,,,0.01,Acu-Link.com,2013-07-27 21:16:00,
2013-07-27 17:46:00,78.6,69.2,29.84,South,180,0.0,-999.0,73,-99.99,,,0.01,Acu-Link.com,2013-07-27 21:46:00,
2013-07-27 18:02:00,79.0,70.0,29.84,South,180,0.0,-999.0,74,-99.99,,,0.01,Acu-Link.com,2013-07-27 22:02:00,
2013-07-27 18:17:00,78.6,69.2,29.85,South,180,0.0,-999.0,73,-99.99,,,0.01,Acu-Link.com,2013-07-27 22:17:00,
2013-07-27 18:32:00,78.1,69.1,29.84,South,180,0.0,-999.0,74,-99.99,,,0.01,Acu-Link.com,2013-07-27 22:32:00,
2013-07-27 18:47:00,77.0,69.2,29.84,South,180,0.0,-999.0,77,-99.99,,,0.01,Acu-Link.com,2013-07-27 22:47:00,
2013-07-27 19:03:00,77.2,69.4,29.84,NW,315,0.0,-999.0,77,-99.99,,,0.01,Acu-Link.com,2013-07-27 23:03:00,
2013-07-27 19:18:00,76.3,68.5,29.85,South,180,0.0,-999.0,77,-99.99,,,0.01,Acu-Link.com,2013-07-27 23:18:00,
2013-07-27 19:33:00,75.9,69.3,29.85,SE,135,0.0,-999.0,80,-99.99,,,0.01,Acu-Link.com,2013-07-27 23:33:00,
2013-07-27 19:49:00,75.0,69.8,29.86,South,180,0.0,-999.0,84,-99.99,,,0.01,Acu-Link.com,2013-07-27 23:49:00,
2013-07-27 20:04:00,74.3,69.8,29.85,South,180,0.0,-999.0,86,-99.99,,,0.01,Acu-Link.com,2013-07-28 00:04:00,
2013-07-27 20:19:00,73.9,69.1,29.86,South,180,0.0,-999.0,85,-99.99,,,0.01,Acu-Link.com,2013-07-28 00:19:00,
2013-07-27 20:35:00,73.0,69.2,29.86,South,180,0.0,-999.0,88,-99.99,,,0.01,Acu-Link.com,2013-07-28 00:35:00,
2013-07-27 20:50:00,72.7,68.9,29.86,SSE,157,0.0,-999.0,88,-99.99,,,0.01,Acu-Link.com,2013-07-28 00:50:00,
2013-07-27 21:05:00,72.3,68.5,29.87,SSE,157,0.0,-999.0,88,-99.99,,,0.01,Acu-Link.com,2013-07-28 01:05:00,
2013-07-27 21:21:00,71.6,68.5,29.87,SE,135,0.0,-999.0,90,-99.99,,,0.01,Acu-Link.com,2013-07-28 01:21:00,
2013-07-27 21:36:00,70.5,68.1,29.88,SE,135,0.0,-999.0,92,-99.99,,,0.01,Acu-Link.com,2013-07-28 01:36:00,
2013-07-27 22:07:00,69.4,67.6,29.88,South,180,0.0,-999.0,94,-99.99,,,0.01,Acu-Link.com,2013-07-28 02:07:00,
2013-07-27 22:22:00,68.9,67.1,29.89,South,180,0.0,-999.0,94,-99.99,,,0.01,Acu-Link.com,2013-07-28 02:22:00,
2013-07-27 22:37:00,68.4,66.9,29.88,South,180,0.0,-999.0,95,-99.99,,,0.01,Acu-Link.com,2013-07-28 02:37:00,
2013-07-27 22:53:00,67.8,66.9,29.89,South,180,0.0,-999.0,97,-99.99,,,0.01,Acu-Link.com,2013-07-28 02:53:00,
2013-07-27 23:08:00,67.5,66.9,29.89,East,90,0.0,-999.0,98,-99.99,,,0.01,Acu-Link.com,2013-07-28 03:08:00,
2013-07-27 23:23:00,67.3,67.0,29.89,East,90,0.0,-999.0,99,-99.99,,,0.01,Acu-Link.com,2013-07-28 03:23:00,
2013-07-27 23:38:00,67.1,66.8,29.90,East,90,0.0,-999.0,99,-99.99,,,0.01,Acu-Link.com,2013-07-28 03:38:00,
2013-07-27 23:54:00,66.9,66.6,29.90,ESE,112,0.0,-999.0,99,-99.99,,,0.01,Acu-Link.com,2013-07-28 03:54:00,